Location: Newark
(9.4667°S, 159.8167°E)
Time: 15:17:28
(UTC+00:00)

Vanguard 1 - Pass Details

Date: 23 November 2019
Orbit: 652 x 3832 km, 34.3° (Epoch: 10 December)

Event Time Altitude Azimuth Distance (km) Brightness Sun altitude
Rises 07:31:18 0° 310° (NW) 3,193 13.1 -2.3°
Reaches altitude 10° 07:33:18 10° 312° (NW) 2,425 12.5 -2.8°
Maximum altitude 07:38:52 76° 38° (NE) 1,153 10.3 -4.1°
Drops below altitude 10° 07:48:45 10° 122° (ESE) 4,171 12.9 -6.3°
Sets 07:53:15 0° 123° (ESE) 5,697 13.6 -7.4°
